Retour au catalogue

WEILI KONGJIAN 05-04

ActifNavigationLEO
NORAD 69585·PAYLOAD·🇨🇳 China
Ce nom de satellite n'a pas encore été confirmé par des sources officielles.

Lancé Jun 17, 2026 depuis Jiuquan Satellite Launch Center

Loading…

Prochains Passages (prochaines 24 heures)

TLE

FraisSource: Space-Track

Époque: Sep 14, 2026, 10:42 UTC

1 69585U 26138D   26257.44628376 -.00000047  00000-0  53875-4 0  9999
2 69585  55.1409 311.3854 0012803  97.6961 262.5468 14.15931773 12665

Suivez WEILI KONGJIAN 05-04 en temps réel avec AllMySat

Download on the App Store